Комсомольский

Россия / Чукотский автономный округ     69°07′56″N   172°44′45″E
темп.,
°C
ветер,
м/с
пор.,
м/с
влажн.,
%
обл.,
%
осадки,
мм/ч
давл.,
гПа
погр.,
м
11 апреля, вс
вс1100:00−27ссв34100100 0.1 102838
03:00−26ссв34100100 0.1 102955
06:00−26ссв46100100 0.1 102988
09:00−25ссв3610098 0.0 1030149
12:00−23ссв359895 0.1 1030209
15:00−23ссв359769 0.0 1030204
18:00−26ссв2210061 0.0 103118
21:00−30ссв2210083 0.0 103310
12 апреля, пн
пн1200:00−31ссв2210045 0.0 10329
03:00−32с119931 0.0 10329
06:00−33зюз119616 0.0 10329
09:00−26зюз11863 0.0 103028
12:00−22зюз21812 0.0 102866
15:00−22зюз22852 0.0 102767
18:00−27зюз21945 0.0 102610
21:00−31юз119871 0.0 102610
13 апреля, вт
вт1300:00−30зюз119658 0.0 10259
03:00−30юз119589 0.0 10239
06:00−23з118890 0.0 102224
09:00−18сз119377 0.0 102093
12:00−15с239088 0.1 1019269
15:00−14ссв2490100 0.0 1018307
18:00−16ссв2295100 0.1 101946
21:00−18ссв2296100 0.0 102021
14 апреля, ср
ср1400:00−19ссв2295100 0.0 102013
03:00−20с1191100 0.0 102110
06:00−19ссв1191100 0.0 102211
09:00−16с128566 0.0 102251
12:00−15ссв227953 0.0 1022126
15:00−14ссв2381100 0.0 1022134
18:00−16ссв1191100 0.0 102310
21:00−22св119698 0.0 10249
15 апреля, чт
чт1500:00−23всв119987 0.0 10249
03:00−24юв1110042 0.0 10249
06:00−24юв1110015 0.0 10239
09:00−17юв11852 0.0 102232
12:00−14ююв22722 0.0 102079
15:00−12юв227816 0.0 101844
18:00−16вюв218496 0.0 10169
21:00−16юв2283100 0.0 101514